TimeCST,TemperatureF,Dew PointF,Humidity,Sea Level PressureIn,VisibilityMPH,Wind Direction,Wind SpeedMPH,Gust SpeedMPH,PrecipitationIn,Events,Conditions,WindDirDegrees,DateUTC
12:55 AM,60.3,57.4,90,30.15,10.0,SSE,3.5,-,N/A,,Overcast,150,2012-11-27 06:55:00
1:11 AM,59.0,57.2,94,30.14,10.0,Calm,Calm,-,N/A,Rain,Light Rain,0,2012-11-27 07:11:00
1:40 AM,59.0,57.2,94,30.14,10.0,SE,3.5,-,N/A,,Partly Cloudy,130,2012-11-27 07:40:00
1:55 AM,59.4,57.6,94,30.13,10.0,SE,3.5,-,0.00,,Mostly Cloudy,140,2012-11-27 07:55:00
1:59 AM,59.0,57.2,94,30.13,10.0,SE,4.6,-,N/A,,Light Drizzle,140,2012-11-27 07:59:00
2:09 AM,59.0,57.2,94,30.13,10.0,SE,3.5,-,N/A,,Scattered Clouds,130,2012-11-27 08:09:00
2:55 AM,58.3,57.2,96,30.12,10.0,Calm,Calm,-,0.00,,Scattered Clouds,0,2012-11-27 08:55:00
3:10 AM,59.0,57.2,94,30.12,10.0,Calm,Calm,-,N/A,Rain,Light Rain,0,2012-11-27 09:10:00
3:20 AM,59.0,57.2,94,30.12,10.0,SSE,3.5,-,N/A,,Scattered Clouds,150,2012-11-27 09:20:00
3:55 AM,58.1,56.8,96,30.11,10.0,Calm,Calm,-,0.00,,Mostly Cloudy,0,2012-11-27 09:55:00
4:55 AM,57.6,57.0,98,30.12,10.0,Calm,Calm,-,N/A,,Mostly Cloudy,0,2012-11-27 10:55:00
5:22 AM,57.2,57.2,100,30.12,10.0,Calm,Calm,-,N/A,Rain,Light Rain,0,2012-11-27 11:22:00
5:55 AM,58.3,57.9,99,30.13,9.0,Calm,Calm,-,0.01,Rain,Light Rain,0,2012-11-27 11:55:00
6:29 AM,60.8,59.0,94,30.12,10.0,SSE,3.5,-,N/A,,Partly Cloudy,160,2012-11-27 12:29:00
6:31 AM,60.8,59.0,94,30.13,10.0,SSE,4.6,-,N/A,Rain,Light Rain,160,2012-11-27 12:31:00
6:55 AM,61.3,61.0,99,30.13,10.0,SSE,3.5,-,0.02,Rain,Light Rain,150,2012-11-27 12:55:00
7:21 AM,60.8,60.8,100,30.14,10.0,Calm,Calm,-,N/A,,Overcast,0,2012-11-27 13:21:00
7:34 AM,60.8,60.8,100,30.14,10.0,SSE,3.5,-,N/A,,Overcast,160,2012-11-27 13:34:00
7:35 AM,60.8,60.8,100,30.14,10.0,SSE,3.5,-,N/A,,Light Drizzle,150,2012-11-27 13:35:00
7:47 AM,62.6,60.8,94,30.14,6.0,SSE,3.5,-,N/A,Rain,Rain,150,2012-11-27 13:47:00
7:48 AM,62.6,60.8,94,30.14,6.0,SSE,3.5,-,N/A,Rain,Rain,150,2012-11-27 13:48:00
7:55 AM,61.9,61.5,99,30.14,5.0,SSE,4.6,-,0.02,Rain,Light Rain,160,2012-11-27 13:55:00
8:21 AM,60.8,60.8,100,30.15,5.0,SSE,4.6,-,N/A,Rain,Rain,160,2012-11-27 14:21:00
8:55 AM,62.1,61.7,99,30.15,4.0,SSE,8.1,-,0.07,,Overcast,160,2012-11-27 14:55:00
9:23 AM,62.6,62.6,100,30.14,6.0,SSE,6.9,-,N/A,Rain,Light Rain,160,2012-11-27 15:23:00
9:55 AM,64.2,63.9,99,30.13,10.0,South,6.9,-,0.03,,Overcast,170,2012-11-27 15:55:00
10:14 AM,64.4,62.6,94,30.14,3.0,NW,15.0,-,N/A,Rain,Heavy Rain,310,2012-11-27 16:14:00
10:30 AM,60.8,59.0,94,30.15,1.2,North,16.1,-,N/A,Rain,Rain,360,2012-11-27 16:30:00
10:44 AM,60.8,59.0,94,30.18,1.2,NW,9.2,-,N/A,Rain,Rain,310,2012-11-27 16:44:00
10:55 AM,59.9,59.0,97,30.19,1.5,NW,6.9,-,0.51,Rain,Rain,310,2012-11-27 16:55:00
11:14 AM,59.0,59.0,100,30.18,2.0,NW,10.4,-,N/A,Rain,Light Rain,320,2012-11-27 17:14:00
11:55 AM,59.9,59.4,98,30.17,3.0,NNW,6.9,-,0.28,Rain,Light Rain,340,2012-11-27 17:55:00
12:28 PM,60.8,59.0,94,30.14,4.0,North,2.3,-,N/A,Rain,Light Rain,10,2012-11-27 18:28:00
12:55 PM,60.4,59.5,97,30.14,6.0,NNE,3.5,-,0.06,Rain,Light Rain,30,2012-11-27 18:55:00
1:55 PM,60.8,60.4,99,30.12,7.0,ENE,3.5,-,0.03,Rain,Light Rain,70,2012-11-27 19:55:00
2:57 PM,61.0,59.9,96,30.10,10.0,East,1.2,-,0.01,Rain,Light Rain,90,2012-11-27 20:57:00
3:15 PM,60.8,60.8,100,30.09,10.0,ENE,1.2,-,N/A,,Overcast,70,2012-11-27 21:15:00
3:55 PM,60.8,60.4,99,30.14,10.0,NNW,4.6,-,0.00,,Mostly Cloudy,330,2012-11-27 21:55:00
4:17 PM,60.8,60.8,100,30.14,10.0,NW,8.1,-,N/A,,Mostly Cloudy,310,2012-11-27 22:17:00
4:49 PM,60.8,59.0,94,30.15,10.0,NW,5.8,-,N/A,,Mostly Cloudy,310,2012-11-27 22:49:00
4:55 PM,59.9,59.5,99,30.19,10.0,NW,5.8,-,N/A,,Mostly Cloudy,310,2012-11-27 22:55:00
5:47 PM,59.0,59.0,100,30.17,10.0,WNW,4.6,-,N/A,,Overcast,300,2012-11-27 23:47:00
5:55 PM,59.2,59.0,99,30.19,10.0,WNW,4.6,-,N/A,,Overcast,300,2012-11-27 23:55:00
6:12 PM,59.0,59.0,100,30.18,10.0,West,1.2,-,N/A,,Mostly Cloudy,280,2012-11-28 00:12:00
6:47 PM,59.0,59.0,100,30.18,10.0,NW,4.6,-,N/A,,Mostly Cloudy,310,2012-11-28 00:47:00
6:55 PM,59.2,58.8,99,30.20,10.0,NW,4.6,-,N/A,,Mostly Cloudy,310,2012-11-28 00:55:00
7:23 PM,59.0,59.0,100,30.19,9.0,NW,6.9,-,N/A,,Mostly Cloudy,320,2012-11-28 01:23:00
7:55 PM,58.6,58.5,99,30.21,9.0,NNW,3.5,-,N/A,,Mostly Cloudy,340,2012-11-28 01:55:00
8:08 PM,59.0,59.0,100,30.20,10.0,NNW,4.6,-,N/A,,Overcast,330,2012-11-28 02:08:00
8:32 PM,59.0,59.0,100,30.20,9.0,NW,3.5,-,N/A,,Overcast,320,2012-11-28 02:32:00
8:41 PM,59.0,59.0,100,30.20,5.0,North,10.4,-,N/A,,Overcast,350,2012-11-28 02:41:00
8:55 PM,57.9,57.6,99,30.22,10.0,North,6.9,-,N/A,,Overcast,350,2012-11-28 02:55:00
9:55 PM,56.5,55.2,96,30.24,5.0,NNW,9.2,-,N/A,,Overcast,340,2012-11-28 03:55:00
10:30 PM,55.4,55.4,100,30.24,3.0,North,6.9,-,N/A,,Light Drizzle,10,2012-11-28 04:30:00
10:48 PM,55.4,55.4,100,30.24,1.0,North,8.1,-,N/A,,Light Drizzle,360,2012-11-28 04:48:00
10:55 PM,55.2,54.7,98,30.26,1.0,North,8.1,-,0.00,,Light Drizzle,10,2012-11-28 04:55:00
11:30 PM,55.4,55.4,100,30.24,0.2,NNW,5.8,-,N/A,Fog,Light Drizzle,340,2012-11-28 05:30:00
11:55 PM,54.0,53.8,99,30.25,0.2,NW,8.1,-,N/A,,Light Drizzle,310,2012-11-28 05:55:00